QPF
0.00 0.00 0.00 0.00 0.00 0.00 0.00 0.00 0.00 0.00 0.00 0.00 0.00 0.00 0.00 0.00 0.00 0.00 0.00 0.00 0.00 0.00 0.00 0.00 0.00 0.00 0.00 0.00 0.01 0.01 0.01 0.00 0.00 0.00 0.00 0.00 0.00 0.00 0.01 0.02 0.05 0.02 0.00
0.00 0.00 0.00 0.00 0.00 0.00 0.00 0.00 0.00 0.00 0.00 0.00 0.00 0.00 0.00 0.00 0.00 0.00 0.00 0.00 0.00 0.00 0.01 0.00 0.00 0.00 0.00 0.00 0.00 0.00 0.00 0.00 0.00 0.00 0.00 0.00 0.00 0.00 0.01 0.03 0.08 0.02 0.00
0.00 0.00 0.00 0.00 0.00 0.00 0.00 0.00 0.00 0.00 0.00 0.00 0.00 0.00 0.00 0.00 0.00 0.00 0.00 0.00 0.00 0.00 0.01 0.00 0.00 0.00 0.00 0.00 0.00 0.00 0.00 0.00 0.00 0.01 0.03 0.02 0.00 0.00 0.01 0.03 0.04 0.01 0.00
0.00 0.00 0.00 0.00 0.00 0.00 0.00 0.00 0.00 0.00 0.00 0.00 0.00 0.00 0.00 0.00 0.00 0.00 0.00 0.01 0.01 0.01 0.01 0.00 0.00 0.00 0.00 0.00 0.00 0.00 0.00 0.00 0.00 0.02 0.13 0.05 0.00 0.00 0.00 0.01 0.01 0.00 0.00
0.00 0.00 0.00 0.00 0.00 0.00 0.00 0.00 0.00 0.00 0.00 0.00 0.00 0.00 0.00 0.00 0.00 0.00 0.00 0.01 0.00 0.00 0.01 0.01 0.00 0.00 0.00 0.00 0.00 0.00 0.00 0.00 0.00 0.03 0.06 0.03 0.03 0.01 0.00 0.00 0.00 0.01 0.01
0.00 0.00 0.00 0.00 0.00 0.00 0.00 0.00 0.00 0.00 0.00 0.00 0.00 0.00 0.00 0.00 0.00 0.00 0.00 0.00 0.01 0.01 0.01 0.00 0.00 0.00 0.00 0.00 0.00 0.00 0.00 0.00 0.00 0.01 0.01 0.02 0.03 0.01 0.00 0.00 0.00 0.01 0.01
0.00 0.00 0.00 0.00 0.00 0.00 0.00 0.00 0.00 0.00 0.00 0.00 0.00 0.00 0.00 0.00 0.00 0.00 0.01 0.01 0.01 0.01 0.01 0.00 0.00 0.00 0.00 0.00 0.00 0.00 0.00 0.00 0.01 0.01 0.00 0.01 0.03 0.00 0.00 0.00 0.00 0.01 0.01
0.00 0.00 0.00 0.00 0.00 0.00 0.00 0.00 0.00 0.00 0.00 0.00 0.00 0.00 0.00 0.00 0.00 0.01 0.01 0.01 0.01 0.00 0.00 0.00 0.00 0.00 0.00 0.00 0.00 0.00 0.00 0.00 0.00 0.00 0.00 0.01 0.01 0.00 0.00 0.00 0.01 0.01 0.01
0.00 0.00 0.00 0.00 0.00 0.00 0.00 0.00 0.00 0.00 0.00 0.00 0.00 0.00 0.00 0.00 0.00 0.00 0.00 0.01 0.00 0.01 0.00 0.00 0.00 0.00 0.00 0.00 0.00 0.00 0.00 0.00 0.00 0.00 0.00 0.01 0.00 0.00 0.00 0.01 0.01 0.01 0.01
0.00 0.00 0.00 0.00 0.00 0.00 0.00 0.00 0.00 0.00 0.00 0.00 0.00 0.00 0.00 0.00 0.00 0.01 0.01 0.01 0.00 0.01 0.00 0.00 0.01 0.01 0.00 0.00 0.00 0.00 0.00 0.00 0.00 0.00 0.00 0.00 0.00 0.00 0.00 0.01 0.02 0.03 0.03
0.00 0.00 0.00 0.00 0.00 0.00 0.00 0.00 0.00 0.00 0.00 0.00 0.00 0.00 0.00 0.00 0.00 0.01 0.01 0.01 0.01 0.01 0.00 0.01 0.01 0.01 0.01 0.01 0.00 0.01 0.01 0.00 0.00 0.01 0.00 0.01 0.01 0.00 0.00 0.01 0.02 0.03 0.03
0.00 0.00 0.00 0.00 0.00 0.00 0.01 0.02 0.02 0.02 0.02 0.01 0.02 0.01 0.01 0.01 0.01 0.01 0.03 0.03 0.02 0.01 0.01 0.01 0.02 0.02 0.01 0.03 0.07 0.05 0.01 0.00 0.00 0.01 0.01 0.02 0.01 0.01 0.00 0.00 0.01 0.03 0.03
0.00 0.00 0.00 0.00 0.00 0.01 0.02 0.02 0.02 0.03 0.04 0.03 0.03 0.03 0.03 0.03 0.02 0.02 0.04 0.05 0.04 0.03 0.03 0.04 0.04 0.05 0.05 0.08 0.14 0.10 0.02 0.02 0.02 0.02 0.07 0.06 0.03 0.02 0.01 0.00 0.01 0.01 0.03
0.00 0.00 0.00 0.00 0.01 0.01 0.02 0.03 0.03 0.03 0.04 0.05 0.06 0.08 0.08 0.07 0.06 0.06 0.06 0.07 0.08 0.11 0.10 0.09 0.11 0.12 0.11 0.12 0.15 0.11 0.07 0.08 0.08 0.12 0.16 0.14 0.08 0.03 0.02 0.01 0.01 0.01 0.02
0.00 0.00 0.00 0.01 0.01 0.02 0.03 0.04 0.03 0.03 0.04 0.04 0.05 0.07 0.09 0.10 0.10 0.10 0.12 0.13 0.11 0.14 0.15 0.16 0.15 0.18 0.17 0.16 0.15 0.14 0.12 0.10 0.10 0.13 0.23 0.22 0.13 0.04 0.02 0.02 0.02 0.02 0.02
0.03 0.02 0.01 0.02 0.03 0.05 0.06 0.06 0.04 0.03 0.04 0.03 0.04 0.06 0.10 0.12 0.12 0.13 0.14 0.16 0.14 0.13 0.13 0.17 0.16 0.18 0.17 0.17 0.12 0.13 0.12 0.10 0.08 0.09 0.13 0.18 0.10 0.04 0.02 0.02 0.02 0.03 0.03
0.04 0.03 0.04 0.04 0.05 0.07 0.09 0.10 0.08 0.06 0.04 0.03 0.06 0.09 0.12 0.12 0.13 0.13 0.13 0.14 0.13 0.12 0.15 0.14 0.14 0.17 0.15 0.12 0.10 0.09 0.11 0.10 0.08 0.09 0.11 0.17 0.15 0.09 0.04 0.03 0.03 0.03 0.03
0.04 0.04 0.04 0.04 0.06 0.09 0.11 0.11 0.10 0.08 0.10 0.09 0.11 0.12 0.14 0.15 0.14 0.15 0.15 0.15 0.16 0.17 0.17 0.18 0.16 0.18 0.19 0.15 0.13 0.11 0.11 0.11 0.08 0.09 0.09 0.12 0.14 0.13 0.14 0.10 0.07 0.04 0.03
0.04 0.05 0.06 0.09 0.11 0.11 0.10 0.11 0.11 0.12 0.13 0.13 0.15 0.17 0.19 0.20 0.21 0.22 0.24 0.26 0.23 0.21 0.20 0.17 0.20 0.23 0.22 0.18 0.14 0.11 0.08 0.06 0.08 0.09 0.11 0.10 0.08 0.11 0.15 0.16 0.09 0.04 0.03
0.04 0.06 0.07 0.08 0.09 0.11 0.14 0.20 0.18 0.14 0.14 0.15 0.16 0.18 0.21 0.19 0.20 0.23 0.26 0.29 0.26 0.21 0.19 0.20 0.22 0.22 0.21 0.20 0.13 0.09 0.09 0.06 0.06 0.08 0.11 0.09 0.06 0.04 0.06 0.10 0.12 0.04 0.03
0.02 0.04 0.06 0.08 0.10 0.12 0.15 0.15 0.15 0.13 0.13 0.13 0.14 0.16 0.18 0.18 0.19 0.21 0.23 0.27 0.25 0.22 0.20 0.20 0.22 0.20 0.16 0.14 0.14 0.12 0.10 0.06 0.06 0.07 0.07 0.07 0.05 0.03 0.03 0.07 0.07 0.07 0.06
0.02 0.03 0.03 0.05 0.06 0.07 0.08 0.09 0.08 0.07 0.08 0.10 0.12 0.14 0.14 0.14 0.15 0.18 0.22 0.24 0.23 0.24 0.24 0.22 0.22 0.21 0.18 0.14 0.14 0.13 0.11 0.09 0.06 0.03 0.03 0.04 0.03 0.03 0.03 0.04 0.05 0.09 0.07
0.00 0.01 0.01 0.02 0.03 0.04 0.05 0.06 0.05 0.05 0.07 0.10 0.10 0.12 0.13 0.13 0.13 0.17 0.20 0.22 0.22 0.23 0.26 0.25 0.23 0.22 0.19 0.15 0.13 0.13 0.11 0.08 0.07 0.04 0.02 0.02 0.02 0.02 0.02 0.03 0.05 0.05 0.04
0.00 0.00 0.01 0.01 0.01 0.01 0.02 0.04 0.05 0.05 0.05 0.05 0.05 0.05 0.06 0.07 0.09 0.12 0.14 0.15 0.17 0.16 0.19 0.18 0.20 0.21 0.19 0.14 0.14 0.12 0.09 0.08 0.10 0.08 0.05 0.02 0.02 0.02 0.01 0.02 0.02 0.03 0.03
0.00 0.00 0.00 0.01 0.01 0.01 0.02 0.02 0.03 0.03 0.04 0.04 0.03 0.03 0.02 0.03 0.03 0.03 0.06 0.09 0.11 0.12 0.15 0.17 0.19 0.19 0.17 0.15 0.16 0.17 0.14 0.11 0.08 0.09 0.11 0.08 0.04 0.02 0.02 0.01 0.02 0.04 0.03
0.00 0.00 0.00 0.01 0.01 0.01 0.01 0.02 0.02 0.03 0.03 0.03 0.03 0.02 0.02 0.02 0.02 0.02 0.03 0.04 0.06 0.09 0.13 0.17 0.18 0.19 0.20 0.18 0.16 0.17 0.16 0.13 0.09 0.08 0.09 0.09 0.08 0.04 0.02 0.01 0.01 0.02 0.02
MSLP
1006.22 1006.40 1006.77 1007.33 1008.01 1008.73 1009.39 1009.93 1010.31 1010.56 1010.73 1010.89 1011.10 1011.39 1011.77 1012.21 1012.64 1013.02 1013.31 1013.50 1013.62 1013.70 1013.78 1013.90 1014.06 1014.26 1014.46 1014.64 1014.77 1014.83 1014.86 1014.88 1014.91 1015.00 1015.14 1015.34 1015.57 1015.80 1015.99 1016.15 1016.26 1016.36 1016.47
1005.92 1006.19 1006.66 1007.32 1008.09 1008.86 1009.54 1010.06 1010.42 1010.63 1010.77 1010.92 1011.15 1011.49 1011.92 1012.39 1012.86 1013.25 1013.53 1013.70 1013.80 1013.85 1013.92 1014.04 1014.21 1014.42 1014.64 1014.82 1014.94 1014.99 1015.01 1015.01 1015.04 1015.14 1015.30 1015.53 1015.78 1016.03 1016.25 1016.41 1016.54 1016.65 1016.76
1005.53 1005.89 1006.47 1007.25 1008.11 1008.94 1009.66 1010.18 1010.52 1010.72 1010.85 1011.00 1011.25 1011.60 1012.05 1012.54 1013.00 1013.37 1013.62 1013.76 1013.82 1013.87 1013.95 1014.09 1014.29 1014.53 1014.77 1014.96 1015.07 1015.12 1015.11 1015.10 1015.13 1015.23 1015.41 1015.66 1015.95 1016.23 1016.47 1016.67 1016.81 1016.94 1017.07
1005.13 1005.59 1006.30 1007.18 1008.14 1009.03 1009.77 1010.31 1010.65 1010.84 1010.97 1011.13 1011.38 1011.74 1012.18 1012.65 1013.07 1013.40 1013.60 1013.70 1013.74 1013.79 1013.89 1014.07 1014.32 1014.61 1014.88 1015.08 1015.20 1015.23 1015.21 1015.18 1015.20 1015.30 1015.50 1015.77 1016.09 1016.40 1016.68 1016.91 1017.09 1017.24 1017.40
1004.83 1005.40 1006.22 1007.21 1008.23 1009.17 1009.93 1010.46 1010.79 1010.97 1011.11 1011.27 1011.53 1011.89 1012.31 1012.74 1013.11 1013.37 1013.52 1013.58 1013.61 1013.67 1013.81 1014.04 1014.35 1014.69 1015.00 1015.22 1015.34 1015.35 1015.31 1015.26 1015.26 1015.36 1015.56 1015.86 1016.20 1016.56 1016.87 1017.14 1017.35 1017.54 1017.73
1004.70 1005.38 1006.29 1007.35 1008.41 1009.36 1010.11 1010.63 1010.93 1011.10 1011.23 1011.40 1011.66 1012.01 1012.40 1012.79 1013.10 1013.31 1013.41 1013.44 1013.46 1013.54 1013.72 1014.01 1014.39 1014.78 1015.13 1015.37 1015.48 1015.48 1015.41 1015.33 1015.31 1015.40 1015.61 1015.91 1016.28 1016.66 1017.01 1017.32 1017.57 1017.79 1018.01
1004.75 1005.52 1006.51 1007.60 1008.66 1009.58 1010.29 1010.75 1011.02 1011.17 1011.29 1011.46 1011.72 1012.06 1012.43 1012.78 1013.04 1013.20 1013.26 1013.26 1013.29 1013.40 1013.63 1013.98 1014.41 1014.86 1015.24 1015.50 1015.61 1015.59 1015.49 1015.38 1015.33 1015.40 1015.60 1015.91 1016.29 1016.69 1017.07 1017.41 1017.69 1017.95 1018.21
1004.93 1005.76 1006.78 1007.87 1008.89 1009.75 1010.39 1010.78 1011.00 1011.12 1011.23 1011.40 1011.66 1011.99 1012.35 1012.67 1012.90 1013.02 1013.05 1013.05 1013.09 1013.23 1013.50 1013.91 1014.39 1014.88 1015.28 1015.55 1015.66 1015.62 1015.50 1015.36 1015.28 1015.32 1015.50 1015.80 1016.18 1016.59 1017.00 1017.36 1017.68 1017.97 1018.25
1005.13 1006.00 1007.01 1008.06 1009.01 1009.79 1010.33 1010.66 1010.82 1010.90 1011.00 1011.18 1011.44 1011.78 1012.14 1012.44 1012.65 1012.76 1012.77 1012.77 1012.82 1012.99 1013.30 1013.74 1014.26 1014.77 1015.20 1015.48 1015.58 1015.53 1015.38 1015.22 1015.11 1015.12 1015.28 1015.56 1015.93 1016.35 1016.76 1017.15 1017.50 1017.82 1018.13
1005.26 1006.12 1007.10 1008.08 1008.95 1009.63 1010.08 1010.34 1010.45 1010.52 1010.62 1010.80 1011.08 1011.43 1011.79 1012.09 1012.29 1012.38 1012.40 1012.40 1012.47 1012.65 1012.98 1013.45 1013.98 1014.52 1014.95 1015.24 1015.34 1015.28 1015.12 1014.94 1014.81 1014.79 1014.92 1015.18 1015.54 1015.95 1016.38 1016.79 1017.16 1017.52 1017.86
1005.26 1006.08 1007.00 1007.89 1008.67 1009.27 1009.65 1009.86 1009.95 1010.01 1010.12 1010.32 1010.62 1010.97 1011.33 1011.63 1011.83 1011.93 1011.95 1011.96 1012.03 1012.22 1012.56 1013.02 1013.56 1014.10 1014.53 1014.82 1014.92 1014.87 1014.71 1014.52 1014.37 1014.33 1014.43 1014.67 1015.02 1015.43 1015.87 1016.30 1016.71 1017.10 1017.48
1005.16 1005.91 1006.74 1007.54 1008.24 1008.76 1009.10 1009.29 1009.38 1009.45 1009.58 1009.80 1010.11 1010.48 1010.83 1011.13 1011.33 1011.43 1011.45 1011.47 1011.55 1011.73 1012.06 1012.51 1013.03 1013.54 1013.97 1014.25 1014.37 1014.32 1014.17 1013.99 1013.83 1013.78 1013.87 1014.09 1014.42 1014.84 1015.29 1015.75 1016.20 1016.63 1017.05
1005.01 1005.67 1006.41 1007.13 1007.75 1008.23 1008.55 1008.73 1008.84 1008.94 1009.10 1009.33 1009.65 1010.01 1010.36 1010.65 1010.85 1010.95 1010.98 1011.00 1011.07 1011.24 1011.54 1011.95 1012.43 1012.91 1013.32 1013.59 1013.72 1013.69 1013.57 1013.39 1013.25 1013.20 1013.27 1013.47 1013.80 1014.22 1014.69 1015.18 1015.68 1016.16 1016.62
1004.95 1005.51 1006.15 1006.78 1007.35 1007.80 1008.12 1008.32 1008.46 1008.59 1008.75 1008.99 1009.30 1009.64 1009.97 1010.25 1010.44 1010.54 1010.58 1010.60 1010.67 1010.81 1011.07 1011.42 1011.84 1012.27 1012.64 1012.91 1013.04 1013.03 1012.94 1012.79 1012.67 1012.62 1012.68 1012.88 1013.20 1013.62 1014.11 1014.64 1015.17 1015.70 1016.20
1005.08 1005.54 1006.08 1006.64 1007.16 1007.58 1007.90 1008.13 1008.29 1008.43 1008.60 1008.82 1009.10 1009.40 1009.70 1009.96 1010.14 1010.25 1010.30 1010.33 1010.38 1010.49 1010.69 1010.97 1011.32 1011.68 1012.00 1012.24 1012.37 1012.39 1012.33 1012.22 1012.12 1012.08 1012.15 1012.34 1012.65 1013.07 1013.57 1014.12 1014.69 1015.25 1015.80
1005.50 1005.85 1006.30 1006.78 1007.25 1007.65 1007.97 1008.20 1008.37 1008.51 1008.65 1008.83 1009.06 1009.30 1009.56 1009.79 1009.97 1010.08 1010.15 1010.18 1010.22 1010.29 1010.43 1010.63 1010.88 1011.15 1011.41 1011.62 1011.74 1011.79 1011.76 1011.69 1011.62 1011.60 1011.67 1011.85 1012.15 1012.56 1013.06 1013.62 1014.21 1014.80 1015.36
1006.19 1006.45 1006.80 1007.21 1007.61 1007.98 1008.28 1008.50 1008.65 1008.76 1008.86 1008.97 1009.12 1009.31 1009.51 1009.71 1009.88 1010.01 1010.09 1010.13 1010.16 1010.19 1010.26 1010.37 1010.52 1010.70 1010.89 1011.04 1011.16 1011.21 1011.22 1011.19 1011.15 1011.16 1011.23 1011.40 1011.68 1012.07 1012.55 1013.10 1013.69 1014.29 1014.86
1007.07 1007.25 1007.51 1007.83 1008.18 1008.49 1008.75 1008.94 1009.05 1009.11 1009.14 1009.18 1009.24 1009.35 1009.50 1009.66 1009.83 1009.97 1010.07 1010.13 1010.15 1010.15 1010.15 1010.17 1010.22 1010.30 1010.40 1010.50 1010.59 1010.66 1010.69 1010.70 1010.70 1010.73 1010.81 1010.97 1011.22 1011.58 1012.03 1012.56 1013.13 1013.71 1014.28
1008.02 1008.12 1008.30 1008.54 1008.81 1009.07 1009.28 1009.41 1009.47 1009.47 1009.42 1009.38 1009.36 1009.39 1009.48 1009.61 1009.77 1009.92 1010.04 1010.11 1010.13 1010.10 1010.04 1009.97 1009.93 1009.91 1009.93 1009.98 1010.04 1010.11 1010.17 1010.21 1010.25 1010.30 1010.39 1010.53 1010.76 1011.08 1011.49 1011.98 1012.52 1013.07 1013.62
1008.89 1008.92 1009.03 1009.20 1009.39 1009.59 1009.74 1009.82 1009.83 1009.76 1009.65 1009.52 1009.42 1009.38 1009.42 1009.52 1009.67 1009.83 1009.96 1010.05 1010.06 1010.01 1009.90 1009.76 1009.63 1009.53 1009.47 1009.47 1009.51 1009.58 1009.66 1009.73 1009.80 1009.87 1009.96 1010.09 1010.29 1010.57 1010.94 1011.38 1011.88 1012.40 1012.92
1009.55 1009.54 1009.59 1009.69 1009.82 1009.96 1010.06 1010.10 1010.06 1009.95 1009.78 1009.59 1009.43 1009.33 1009.31 1009.38 1009.51 1009.67 1009.82 1009.91 1009.93 1009.86 1009.72 1009.53 1009.34 1009.17 1009.05 1009.00 1009.02 1009.08 1009.17 1009.27 1009.36 1009.45 1009.54 1009.67 1009.84 1010.08 1010.40 1010.80 1011.25 1011.74 1012.23
1009.96 1009.91 1009.91 1009.96 1010.05 1010.15 1010.22 1010.23 1010.17 1010.03 1009.82 1009.60 1009.39 1009.24 1009.18 1009.21 1009.31 1009.46 1009.61 1009.71 1009.73 1009.66 1009.51 1009.30 1009.06 1008.85 1008.70 1008.62 1008.61 1008.67 1008.76 1008.87 1008.97 1009.07 1009.17 1009.28 1009.43 1009.64 1009.92 1010.27 1010.69 1011.14 1011.61
1010.09 1010.04 1010.01 1010.04 1010.09 1010.16 1010.22 1010.23 1010.17 1010.03 1009.82 1009.57 1009.33 1009.15 1009.04 1009.03 1009.10 1009.23 1009.36 1009.47 1009.50 1009.44 1009.29 1009.08 1008.85 1008.63 1008.45 1008.35 1008.33 1008.37 1008.46 1008.56 1008.67 1008.76 1008.85 1008.95 1009.08 1009.26 1009.51 1009.83 1010.22 1010.64 1011.10
1010.05 1009.99 1009.96 1009.97 1010.01 1010.07 1010.13 1010.15 1010.11 1009.99 1009.79 1009.55 1009.29 1009.08 1008.93 1008.87 1008.89 1008.98 1009.10 1009.20 1009.24 1009.21 1009.10 1008.92 1008.71 1008.51 1008.34 1008.23 1008.20 1008.22 1008.29 1008.38 1008.47 1008.55 1008.62 1008.71 1008.82 1008.97 1009.19 1009.48 1009.84 1010.25 1010.69
1009.92 1009.89 1009.86 1009.85 1009.89 1009.95 1010.01 1010.05 1010.04 1009.94 1009.77 1009.54 1009.28 1009.03 1008.84 1008.73 1008.70 1008.75 1008.84 1008.93 1009.00 1009.00 1008.94 1008.82 1008.66 1008.49 1008.35 1008.25 1008.21 1008.21 1008.25 1008.31 1008.38 1008.43 1008.48 1008.54 1008.63 1008.76 1008.96 1009.22 1009.55 1009.94 1010.36
1009.84 1009.82 1009.79 1009.77 1009.79 1009.84 1009.91 1009.97 1009.98 1009.92 1009.77 1009.55 1009.29 1009.01 1008.78 1008.61 1008.52 1008.52 1008.58 1008.67 1008.75 1008.80 1008.80 1008.75 1008.65 1008.54 1008.43 1008.35 1008.31 1008.30 1008.31 1008.34 1008.37 1008.40 1008.42 1008.45 1008.51 1008.62 1008.79 1009.02 1009.32 1009.68 1010.09
Thickness
5863 5854 5845 5839 5834 5829 5825 5820 5816 5812 5808 5805 5801 5798 5795 5791 5789 5786 5784 5781 5779 5777 5775 5773 5771 5769 5767 5765 5764 5762 5761 5760 5759 5758 5756 5754 5753 5752 5751 5750 5750 5748 5746
5865 5852 5843 5838 5832 5827 5823 5819 5815 5811 5807 5803 5800 5796 5793 5790 5787 5784 5782 5780 5777 5775 5773 5771 5769 5767 5766 5764 5762 5761 5760 5758 5757 5756 5755 5753 5752 5750 5750 5750 5750 5747 5745
5862 5850 5841 5836 5830 5826 5821 5817 5813 5809 5805 5801 5798 5795 5791 5788 5785 5782 5780 5778 5776 5774 5771 5769 5767 5765 5764 5762 5761 5759 5759 5758 5756 5755 5755 5754 5751 5749 5748 5748 5747 5746 5744
5859 5848 5841 5834 5829 5824 5819 5815 5811 5807 5803 5800 5796 5793 5790 5787 5784 5781 5778 5776 5774 5772 5770 5767 5765 5764 5762 5760 5759 5758 5757 5757 5756 5755 5755 5755 5752 5749 5747 5746 5745 5744 5743
5857 5848 5839 5832 5826 5821 5817 5813 5809 5805 5802 5798 5795 5791 5788 5785 5782 5780 5777 5775 5772 5770 5768 5766 5764 5762 5760 5759 5757 5757 5756 5756 5755 5756 5757 5756 5752 5748 5747 5745 5744 5743 5742
5855 5847 5836 5830 5824 5819 5815 5810 5807 5803 5799 5796 5793 5790 5787 5784 5781 5778 5776 5773 5771 5768 5766 5764 5762 5760 5758 5757 5756 5755 5755 5755 5755 5757 5758 5756 5752 5748 5746 5745 5743 5742 5741
5856 5845 5833 5827 5822 5817 5812 5808 5804 5800 5797 5794 5791 5787 5785 5782 5779 5776 5774 5771 5769 5766 5764 5762 5760 5758 5756 5755 5753 5753 5753 5753 5754 5758 5758 5756 5752 5748 5746 5744 5743 5741 5740
5855 5842 5830 5824 5818 5813 5809 5805 5801 5797 5794 5791 5788 5785 5782 5780 5777 5774 5772 5769 5767 5765 5762 5760 5758 5756 5755 5753 5751 5751 5751 5751 5754 5758 5758 5756 5752 5749 5746 5744 5742 5741 5740
5855 5840 5829 5822 5816 5810 5806 5802 5798 5794 5791 5788 5785 5782 5779 5777 5774 5772 5770 5768 5765 5763 5761 5758 5756 5755 5753 5752 5750 5749 5749 5750 5751 5755 5758 5756 5753 5750 5747 5744 5742 5741 5740
5849 5838 5829 5822 5815 5809 5804 5799 5796 5792 5788 5785 5782 5779 5776 5774 5771 5769 5767 5765 5763 5761 5759 5757 5755 5754 5752 5751 5749 5748 5748 5748 5750 5753 5757 5756 5754 5751 5748 5745 5743 5741 5740
5843 5837 5831 5823 5816 5811 5806 5800 5794 5789 5786 5782 5779 5776 5773 5772 5770 5768 5766 5764 5762 5760 5758 5756 5755 5753 5751 5750 5749 5748 5747 5747 5750 5753 5757 5756 5754 5752 5749 5746 5744 5742 5741
5834 5832 5830 5823 5817 5812 5809 5801 5794 5789 5785 5781 5779 5776 5772 5771 5770 5770 5768 5764 5760 5758 5757 5755 5754 5752 5751 5751 5750 5748 5747 5747 5749 5753 5756 5754 5752 5751 5750 5747 5745 5743 5741
5830 5828 5826 5821 5815 5812 5807 5800 5795 5791 5787 5781 5779 5776 5772 5771 5769 5769 5767 5763 5759 5756 5754 5753 5751 5751 5751 5751 5752 5750 5748 5749 5750 5752 5755 5754 5751 5749 5748 5747 5745 5743 5742
5824 5822 5820 5817 5811 5806 5803 5799 5795 5791 5786 5783 5779 5775 5771 5768 5766 5765 5763 5761 5757 5754 5752 5752 5751 5750 5751 5751 5751 5750 5749 5749 5750 5750 5750 5750 5749 5748 5747 5746 5744 5743 5742
5816 5814 5813 5810 5805 5799 5795 5791 5790 5786 5784 5781 5777 5773 5769 5765 5761 5759 5758 5756 5755 5752 5751 5749 5749 5749 5748 5749 5749 5750 5749 5750 5749 5750 5748 5746 5745 5747 5746 5745 5743 5742 5741
5807 5806 5805 5801 5798 5792 5786 5782 5780 5778 5776 5774 5771 5768 5764 5760 5758 5755 5753 5750 5750 5747 5746 5745 5745 5744 5744 5745 5746 5748 5748 5748 5748 5748 5747 5746 5745 5747 5746 5744 5743 5742 5741
5800 5799 5796 5793 5788 5783 5778 5773 5771 5770 5768 5766 5763 5760 5757 5753 5751 5749 5747 5745 5745 5743 5741 5740 5740 5740 5739 5740 5742 5744 5745 5746 5746 5747 5746 5746 5745 5744 5744 5744 5743 5742 5741
5791 5788 5786 5785 5779 5774 5769 5765 5763 5761 5758 5756 5753 5751 5748 5745 5743 5741 5740 5740 5740 5738 5737 5735 5734 5733 5733 5734 5736 5739 5742 5744 5745 5746 5745 5745 5743 5744 5744 5743 5742 5741 5741
5780 5777 5774 5771 5767 5764 5761 5757 5755 5752 5749 5747 5744 5741 5738 5736 5735 5734 5733 5732 5732 5731 5731 5731 5730 5728 5727 5728 5730 5733 5737 5741 5743 5744 5744 5743 5744 5745 5745 5744 5742 5741 5740
5770 5767 5764 5760 5756 5754 5751 5747 5745 5743 5741 5738 5735 5732 5730 5729 5727 5726 5726 5725 5724 5724 5723 5724 5723 5723 5722 5723 5725 5729 5732 5737 5741 5742 5741 5742 5744 5745 5746 5745 5742 5740 5740
5759 5756 5753 5749 5746 5743 5739 5735 5732 5730 5729 5728 5726 5724 5722 5721 5720 5719 5718 5718 5718 5717 5717 5717 5717 5716 5716 5718 5716 5718 5725 5733 5736 5738 5740 5740 5743 5745 5746 5745 5743 5741 5741
5749 5746 5744 5740 5737 5734 5729 5726 5724 5722 5720 5720 5719 5717 5715 5714 5713 5712 5712 5711 5712 5711 5711 5711 5711 5710 5712 5713 5711 5709 5710 5718 5728 5736 5737 5738 5739 5742 5743 5744 5742 5742 5742
5742 5739 5736 5732 5728 5725 5721 5719 5716 5713 5711 5709 5708 5707 5707 5706 5705 5704 5704 5704 5704 5704 5703 5705 5705 5704 5702 5707 5710 5707 5705 5707 5717 5726 5731 5734 5736 5737 5739 5741 5741 5741 5742
5736 5734 5729 5725 5721 5716 5712 5708 5703 5700 5698 5698 5698 5698 5698 5698 5698 5697 5696 5696 5696 5696 5696 5696 5698 5698 5698 5698 5703 5707 5709 5711 5707 5709 5719 5727 5731 5732 5735 5738 5739 5740 5741
5731 5727 5722 5717 5712 5708 5704 5699 5694 5691 5690 5690 5689 5688 5687 5688 5689 5689 5689 5688 5688 5687 5688 5689 5690 5690 5691 5692 5695 5698 5702 5705 5706 5702 5703 5713 5720 5727 5731 5733 5735 5737 5737
5725 5720 5715 5709 5703 5699 5695 5690 5685 5681 5679 5677 5676 5676 5677 5678 5679 5680 5681 5680 5679 5679 5679 5680 5681 5682 5684 5686 5689 5691 5694 5696 5698 5699 5699 5703 5708 5717 5725 5728 5731 5733 5734